RH
22 22 20 19 21 27 30 36 46 58 74 80 83 84 76 78 74 68 73 60 47 35 37 38 41 58 78 70 77 77 70 62 64 51 46 66 76 68 57 64 72 69 59 65 56
22 20 19 18 20 24 35 41 47 52 52 57 66 78 76 83 76 66 54 62 56 34 30 32 32 30 41 56 69 58 64 84 64 62 49 47 54 70 68 57 58 70 70 62 65
23 22 21 22 27 34 43 60 68 70 66 61 45 41 29 24 26 28 36 51 57 34 22 23 23 27 27 32 40 52 46 54 80 62 65 60 46 47 59 67 57 53 65 62 55
25 24 30 32 35 40 46 54 62 58 43 37 29 26 24 22 22 21 24 20 15 14 17 21 21 20 22 25 28 34 37 40 43 68 58 63 65 46 46 54 62 59 49 56 62
32 29 32 45 43 40 43 44 43 38 33 30 25 21 20 24 26 24 19 12 10 10 11 13 14 16 17 18 22 24 26 28 35 36 59 60 55 62 49 48 49 54 60 53 49
33 37 33 39 54 51 46 48 45 38 35 29 21 20 22 23 23 19 13 11 10 10 9 9 11 12 12 13 15 20 21 25 27 30 31 45 58 50 56 50 47 48 49 58 59
37 44 51 43 40 41 45 38 37 32 30 23 23 22 22 21 17 14 12 10 9 9 10 9 8 9 10 10 13 15 15 19 26 32 32 28 41 51 54 55 48 49 47 48 54
42 50 54 50 41 44 49 47 35 28 27 26 25 22 18 15 12 11 10 9 8 9 9 9 9 8 8 10 12 12 12 14 20 24 29 35 33 33 50 55 53 50 46 48 45
52 64 76 44 54 51 39 45 39 31 28 24 21 19 15 12 11 10 10 9 8 7 9 9 9 8 8 9 10 12 12 13 15 19 22 25 35 28 31 55 51 51 51 50 45
48 48 69 59 66 62 50 42 47 36 24 26 21 16 13 10 10 9 8 8 7 7 8 9 9 9 9 9 10 13 12 13 13 14 15 19 24 25 25 34 54 45 49 48 47
40 47 66 51 70 57 54 50 51 44 29 26 16 13 11 9 9 9 9 8 7 7 7 7 8 10 10 10 11 11 13 14 13 14 14 15 17 22 25 25 40 52 48 50 46
46 56 71 62 60 65 57 43 25 24 27 18 12 10 9 9 9 8 8 7 7 8 8 8 9 9 10 10 10 12 12 12 13 13 13 13 16 18 24 25 26 41 46 48 44
59 74 59 68 64 66 56 43 33 29 29 22 17 10 10 9 8 8 8 7 7 8 9 9 9 9 9 10 10 11 12 12 12 13 12 14 15 18 22 24 23 25 36 42 44
58 63 63 74 64 73 62 46 31 28 27 24 12 11 11 8 8 8 8 7 7 8 9 10 10 10 9 10 10 11 12 14 14 14 13 15 15 17 19 21 20 20 22 35 36
51 66 62 84 61 73 59 45 34 25 23 18 12 12 12 9 8 8 8 8 7 8 9 10 12 10 9 10 10 11 12 13 14 15 16 16 17 17 17 18 18 19 24 25 31
49 45 66 85 57 77 59 46 40 29 28 19 15 12 9 10 8 8 9 8 8 8 9 11 13 14 13 11 10 12 13 13 16 16 15 16 17 18 16 18 17 18 20 24 24
44 44 74 92 67 81 61 55 34 32 26 14 15 12 10 9 8 8 10 8 10 9 10 11 14 14 14 13 12 12 13 14 15 14 17 18 18 19 16 16 17 17 18 20 23
42 54 63 95 62 71 64 57 36 31 27 15 14 11 9 10 8 9 11 9 10 10 12 11 14 15 15 15 14 12 12 13 15 17 19 19 19 20 18 17 17 17 19 20 22
41 57 77 93 66 73 68 52 30 30 20 18 13 9 9 10 9 9 11 10 10 11 12 12 13 16 16 17 16 14 13 13 14 15 16 17 19 20 19 17 17 17 18 19 20
44 54 98 82 74 74 65 48 29 32 22 17 12 10 9 9 10 9 9 10 11 11 12 13 14 16 16 16 17 17 15 14 14 15 16 18 18 18 19 18 19 19 20 19 19
68 64 100 80 72 70 66 54 31 30 25 17 12 10 9 10 10 10 9 10 11 11 12 12 13 16 17 17 17 17 17 16 15 15 16 17 18 19 20 21 20 19 20 21 19
69 74 91 85 76 70 53 37 30 30 23 16 12 11 10 10 10 10 10 12 12 11 11 12 13 15 16 16 18 19 18 16 16 16 16 16 17 20 21 21 19 18 18 18 20
73 55 89 98 87 75 50 34 28 29 24 16 13 12 11 11 10 10 10 12 12 12 12 12 14 15 17 19 18 18 19 18 18 16 16 16 17 19 20 20 20 18 18 18 20
82 82 85 92 74 60 54 36 24 28 23 16 14 12 11 10 10 10 10 10 12 13 13 13 14 16 17 16 17 18 19 19 18 17 16 16 16 17 19 20 20 20 20 19 18
91 98 84 89 71 60 52 28 27 30 23 16 14 12 10 9 11 11 10 10 12 14 15 15 15 15 16 18 19 20 20 21 20 19 18 17 18 18 18 19 19 19 19 18 18
70 79 86 87 81 59 49 23 26 30 21 16 13 12 10 10 11 11 10 10 12 14 15 14 13 13 16 18 20 21 20 20 19 18 18 18 18 18 18 18 19 19 19 19 19
85 83 68 82 77 55 48 22 25 27 18 16 13 12 11 10 10 11 10 10 13 14 15 15 15 16 18 19 21 20 19 19 20 20 20 20 18 18 18 18 18 19 19 19 19
Wind_Speed
48 50 54 60 65 69 71 73 76 76 78 79 80 82 83 83 85 86 86 89 89 88 84 87 89 89 88 85 81 81 78 74 71 77 79 81 83 81 81 76 72 70 69 67 64
55 54 60 64 64 68 73 76 78 80 83 86 87 89 89 88 92 94 95 95 96 93 91 93 94 98 98 93 91 91 81 79 80 81 84 83 83 84 82 81 80 76 74 72 69
59 65 60 65 59 62 66 70 73 78 81 83 88 92 90 91 95 100 101 106 109 103 97 96 98 101 100 104 101 97 88 87 85 90 88 86 84 85 84 85 83 83 80 78 76
62 64 60 62 60 63 67 69 73 78 81 83 84 85 84 82 84 86 88 97 95 90 92 98 100 99 103 102 108 106 100 96 93 95 97 94 88 86 85 84 87 86 85 83 80
58 59 61 61 60 59 62 66 71 74 78 79 79 75 72 74 78 87 89 87 81 79 79 85 90 97 100 103 107 109 107 106 104 102 100 98 95 89 88 86 86 86 89 88 87
60 62 64 62 60 61 60 64 68 71 71 74 73 71 68 73 75 84 90 83 76 70 70 71 79 89 93 98 101 105 110 110 111 109 108 104 99 98 90 91 90 87 87 91 90
67 68 74 71 70 67 64 65 66 66 68 68 66 65 66 71 77 78 76 75 73 68 69 71 75 77 86 92 97 101 107 112 113 110 110 111 107 100 99 93 95 93 89 89 92
69 74 81 84 77 76 78 68 67 67 67 63 63 62 65 69 72 72 68 69 70 64 65 68 72 73 75 83 92 97 102 104 111 117 116 114 110 108 105 104 97 95 93 91 91
78 81 85 84 86 87 82 78 73 74 72 67 64 64 68 68 67 66 62 65 64 61 62 66 72 72 73 75 83 89 92 98 104 112 118 121 115 114 112 110 108 101 97 94 93
82 82 87 89 91 94 88 85 87 86 74 72 66 66 66 66 60 59 56 59 58 58 62 63 65 68 72 72 71 77 88 94 100 107 110 116 119 117 116 117 114 109 102 98 96
83 89 91 94 95 98 98 92 88 87 84 75 70 67 65 63 52 53 50 50 51 54 57 60 60 62 69 71 77 80 85 92 96 99 103 108 115 118 118 118 118 114 111 103 101
88 91 94 104 100 102 104 101 93 81 74 70 68 62 60 58 53 47 44 44 45 47 50 53 55 61 65 68 74 77 85 89 92 93 96 99 106 113 115 115 118 117 114 111 106
94 98 99 105 107 105 108 106 98 91 84 77 70 61 57 52 47 40 40 39 39 42 43 45 50 57 60 65 71 76 80 84 90 91 90 91 97 104 108 112 113 117 117 116 112
94 99 104 107 110 109 110 111 101 94 90 84 68 63 59 50 45 36 34 35 34 36 38 39 45 51 57 63 69 75 78 81 85 88 88 88 89 95 102 107 110 111 114 118 117
99 100 106 109 111 114 117 112 107 98 92 80 70 63 55 50 41 32 30 31 27 32 35 37 43 46 51 60 66 68 73 79 82 85 87 87 87 89 94 101 104 104 108 116 119
99 101 106 112 116 118 122 115 114 103 97 84 75 64 52 47 38 27 26 25 23 28 32 37 41 42 44 51 57 64 67 75 82 85 87 87 87 89 90 94 98 99 105 111 115
101 102 105 112 119 119 126 121 116 107 97 78 73 61 51 42 33 23 22 20 20 25 29 36 39 40 43 48 55 61 66 71 77 81 81 85 86 87 88 89 93 96 101 107 111
101 106 107 115 119 121 125 123 118 104 94 81 71 59 47 38 30 21 19 18 18 21 27 33 37 38 38 43 50 56 60 65 66 69 73 79 82 86 87 89 91 94 98 101 105
102 107 108 117 119 121 127 127 115 104 88 84 67 56 44 35 27 21 14 16 17 19 26 31 35 36 36 38 41 46 51 58 63 66 69 75 81 84 85 87 87 89 92 96 102
103 109 110 118 119 121 127 130 116 104 92 81 65 52 40 32 24 19 11 15 16 19 24 29 33 36 35 35 37 42 46 52 59 62 64 70 76 79 79 80 81 82 85 92 96
104 108 109 117 120 125 129 128 116 101 95 80 63 49 37 28 21 16 14 13 16 20 21 27 30 34 35 34 35 39 44 48 54 59 63 65 68 72 74 74 76 78 78 79 88
103 105 110 119 123 128 128 123 111 99 92 76 60 46 34 25 19 14 13 11 14 18 20 22 27 31 32 32 31 34 41 45 49 56 60 61 63 66 69 71 72 73 75 77 78
101 104 113 116 121 126 128 123 108 97 91 71 57 43 32 23 16 13 10 9 13 17 19 21 23 26 30 31 32 32 34 38 43 49 53 56 59 61 64 66 68 69 69 69 71
103 106 111 117 123 128 129 119 104 95 89 69 54 42 31 21 15 11 9 9 11 14 16 19 21 24 28 31 32 32 32 35 38 42 46 51 54 56 56 60 62 65 66 67 67
102 106 109 117 128 133 126 114 100 97 85 66 52 40 29 21 14 11 9 9 10 13 17 22 25 26 28 29 31 32 31 31 32 35 40 43 47 51 52 53 56 60 62 62 62
103 107 112 120 127 133 127 108 94 95 80 63 49 36 27 20 14 11 10 9 9 13 17 22 23 22 25 29 31 32 31 30 31 32 33 36 40 43 45 46 48 51 53 54 55
104 107 114 122 126 127 124 105 93 91 75 59 46 34 26 20 14 11 9 9 10 12 14 19 21 20 21 26 31 31 30 29 28 27 28 31 35 38 39 40 41 42 43 45 47
Wind_Direction
306 296 297 297 291 285 281 278 277 276 274 273 271 269 269 267 266 264 261 260 258 253 250 247 243 242 241 240 238 236 233 229 232 233 233 233 233 232 230 229 229 229 231 231 234
311 308 307 311 296 287 281 279 277 276 274 274 272 270 269 267 266 265 264 261 259 257 252 249 245 242 240 240 240 238 235 233 230 232 232 233 231 232 232 232 229 230 230 231 232
318 312 310 310 298 291 288 284 283 278 277 276 274 274 275 273 271 270 267 263 259 259 257 253 247 244 241 239 238 239 236 234 234 233 232 232 232 231 232 232 232 230 231 231 232
324 322 322 318 305 296 292 287 285 284 283 282 280 279 280 279 278 272 271 269 268 264 257 254 253 246 242 240 238 235 236 237 233 233 233 233 232 230 231 231 232 232 231 232 232
329 327 331 331 317 306 300 293 290 289 288 288 289 290 291 287 281 277 269 270 269 266 259 252 250 247 244 240 237 235 235 235 234 235 234 233 233 230 229 230 231 233 233 232 233
333 336 334 332 335 324 313 305 301 300 299 296 297 297 293 284 277 270 275 277 274 270 264 255 246 244 243 242 238 235 232 232 232 233 234 233 232 232 230 229 231 231 232 234 233
344 341 343 339 332 337 329 322 316 316 311 311 311 304 295 288 281 279 279 276 274 268 264 258 251 245 240 239 237 235 232 229 229 230 231 232 231 232 231 230 230 230 231 233 234
346 346 344 339 338 339 337 328 324 322 324 324 316 306 295 288 285 283 281 278 274 266 261 256 252 247 240 237 235 236 234 232 229 229 229 230 230 229 229 229 228 228 229 232 234
346 345 342 344 344 340 338 340 335 331 330 325 317 310 299 293 291 285 283 277 271 266 259 253 249 246 242 234 232 233 234 232 230 230 229 230 229 229 228 228 227 227 228 228 232
347 345 343 345 342 342 340 340 340 334 334 328 320 309 303 299 296 290 283 275 269 264 257 251 245 243 238 236 233 230 231 231 230 230 229 229 229 229 228 227 227 226 227 229 229
347 348 345 346 343 342 342 340 338 341 335 329 320 313 309 305 299 291 284 276 268 258 252 247 241 237 235 228 229 226 227 227 229 229 228 227 227 228 229 227 226 226 227 228 228
345 344 344 345 343 343 341 341 340 342 338 328 319 313 311 308 304 295 285 275 265 257 251 245 238 234 231 229 228 225 225 225 228 228 229 228 227 226 228 228 225 225 225 227 228
343 340 343 344 344 344 342 342 341 341 339 335 328 318 316 311 305 299 287 277 264 254 248 242 237 231 227 224 223 224 225 224 225 227 229 228 227 226 226 228 227 225 225 225 227
341 340 342 343 344 344 343 342 342 341 339 335 329 326 321 316 309 301 289 276 261 250 243 235 231 227 224 222 220 221 220 221 222 225 226 227 225 225 226 227 227 227 225 225 226
339 339 340 339 344 344 345 344 343 342 340 337 330 326 326 319 310 301 290 278 259 246 238 228 230 228 222 220 220 221 220 220 222 222 222 224 223 224 224 226 227 226 224 224 226
339 338 340 339 342 343 344 343 344 343 341 339 335 330 327 321 311 303 289 273 258 244 233 226 223 225 225 223 220 222 220 219 219 221 221 221 221 223 224 225 226 226 226 225 225
337 337 339 340 340 342 343 342 346 343 341 338 336 332 328 322 311 305 284 266 252 243 230 221 218 219 220 218 217 218 217 217 219 221 220 219 220 222 224 225 226 226 226 227 228
335 337 340 339 341 342 342 342 345 345 343 340 337 334 329 323 311 309 277 261 249 235 223 217 214 214 217 216 215 216 215 216 217 219 219 220 219 220 221 224 225 226 227 227 229
334 337 339 338 340 342 342 342 344 345 343 342 338 336 331 323 313 308 270 257 247 231 218 213 210 210 215 219 219 217 218 216 214 215 217 220 219 221 221 223 225 226 228 228 228
333 335 337 337 340 341 342 341 346 345 344 342 340 336 330 321 314 303 275 261 241 230 220 210 206 208 211 215 217 217 217 215 213 213 216 219 220 222 222 224 226 227 230 231 230
334 336 336 338 339 340 341 339 343 346 346 342 340 336 329 322 312 298 286 263 240 221 216 212 205 203 205 210 213 215 213 213 213 214 216 218 220 221 223 224 225 226 228 230 231
336 339 336 337 337 339 340 341 345 347 345 342 339 336 330 322 309 300 290 263 242 218 207 207 206 203 206 206 208 211 213 213 213 215 216 218 220 221 223 224 226 228 229 231 233
335 338 335 337 338 338 340 339 344 347 345 342 339 337 329 320 311 304 289 248 235 224 201 202 199 203 204 206 208 207 209 212 214 215 216 218 220 221 223 224 226 228 230 232 233
335 335 336 336 336 337 339 338 345 348 345 341 338 336 329 319 315 306 283 242 230 223 205 202 199 199 202 206 205 209 209 209 210 213 215 217 219 220 222 225 227 229 230 233 235
336 333 334 334 335 337 338 338 345 348 344 340 338 335 329 318 314 303 280 248 226 209 202 199 201 201 201 199 201 204 207 209 211 212 213 215 217 218 220 223 226 228 230 233 236
331 332 332 332 332 335 337 339 346 347 344 340 337 334 328 322 315 302 280 249 219 208 206 202 206 204 202 200 200 202 205 207 209 212 213 213 215 218 220 222 224 227 230 233 235
329 328 330 330 332 333 336 339 346 346 343 340 337 333 327 318 308 295 271 240 220 210 209 202 198 198 201 203 199 201 203 204 204 205 207 208 211 212 216 219 223 226 228 230 232